EUTELSAT 10B

Last updated on Tue Oct 15 2024 00:02:42 GMT+0000 (Coordinated Universal Time)

1 54259U 22157A 24288.26438219 .00000066 00000+0 00000+0 0 9991 2 54259 0.0533 87.2346 0000746 335.7862 65.4891 1.00270103 6901
UTC large
Height (km)
Speed (km/s)
/
Latitude / Longitude
Inclination (degrees)
Orbital Period (minutes)
Azimuth
Elevation
Range (km)
Doppler Factor

Next 0 passes for location: London (51.5072 / 0.1276)

Sorry there are no passes over London.